Location: Aranbee
(34.0885°N, 118.2342°W)
Time: 03:52:49
(UTC+00:00)

deb Explorer IX - Pass Details

Date: 27 November 2020
Orbit: 536 x 1104 km, 38.8° (Epoch: 17 January)

Event Time Altitude Azimuth Distance (km) Brightness Sun altitude
Rises 03:50:55 0° 283° (WNW) 3,169 ? -38.2°
Reaches altitude 10° 03:53:35 10° 289° (WNW) 2,150 ? -38.8°
Enters shadow 03:54:26 14° 292° (WNW) 1,838 ? -38.9°
